Regional Weather Roundup
Issued by NWS

Home | Current Version | Previous Version | Text Only | Print | Product List | Glossary On
Versions: 1 2 3 4 5 6 7 8 9 10 11 12 13 14 15 16 17 18 19 20 21 22 23 24 25 26 27 28 29 30 31 32 33 34 35 36 37 38 39 40 41 42 43 44 45 46 47 48 49 50
000
ASUS43 KDTX 241301
RWRMI
MICHIGAN HOURLY REGIONAL WEATHER ROUNDUP
NATIONAL WEATHER SERVICE DETROIT/PONTIAC MI
900 AM EDT WED MAY 24 2017

NOTE: "FAIR" INDICATES FEW OR NO CLOUDS BELOW 12,000 FEET WITH NO
SIGNIFICANT WEATHER AND/OR OBSTRUCTION TO VISIBILITY.

MIZ047>049-052>055-059>063-066>070-074>076-081>083-241400-
SOUTHEAST LOWER MICHIGAN

CITY           SKY/WX    TMP DP  RH WIND       PRES   REMARKS
ADRIAN         CLOUDY    58  52  80 E9        29.59S
ALMA           CLOUDY    58  55  90 NE10      29.64S
ANN ARBOR      MOSUNNY   59  53  80 NE3       29.59F
BAD AXE        MOSUNNY   56  53  90 NE5       29.67F
CARO           MOSUNNY   57  54  89 E7        29.64S
DETROIT CITY   CLOUDY    61  54  77 E9        29.60F
DETROIT        CLOUDY    61  53  75 NE8       29.59F
FLINT          PTSUNNY   58  52  80 E9        29.62S
GROSSE ILE     CLOUDY    59  52  78 E8        29.59S
HILLSDALE      CLOUDY    57  52  82 E7        29.59R
HOWELL         CLOUDY    59  51  75 E6        29.60F

CITY           SKY/WX    TMP DP  RH WIND       PRES   REMARKS
JACKSON        CLOUDY    58  54  86 NE3       29.59F
LAMBERTVILLE   CLOUDY    60  55  82 E3        29.58S
LANSING        LGT RAIN  56  51  84 NW3       29.62R
LAPEER         FAIR      57  53  85 E7        29.63F
MASON          CLOUDY    57  53  86 NE5       29.60S
MONROE           N/A     61  54  75 E6        29.59F
MT. CLEMENS    PTSUNNY   59  54  84 E9        29.60F
PONTIAC        CLOUDY    59  52  77 NE9       29.59F
PORT HOPE        N/A     51  49  92 NE7       29.67F
PORT HURON     CLOUDY    57  50  77 E6        29.64S
TRI CITIES     CLOUDY    57  55  93 NE18      29.65F
MIDLAND        FAIR      57  53  86 NE5       29.65S
TROY           CLOUDY    58  51  76 NE8       29.62F
SAGINAW HB     CLOUDY    59  54  82 N13       29.64S
$$
MIZ043>046-050>051-056>058-064>065-071>073-077>080-241400-
SOUTHWEST LOWER MICHIGAN

CITY           SKY/WX    TMP DP  RH WIND       PRES   REMARKS
BATTLE CREEK   CLOUDY    57  53  86 NE7       29.59F
BENTON HARBOR  CLOUDY    60  52  74 E5        29.57S
BIG RAPIDS     CLOUDY    55  52  88 NE3       29.65S
COLDWATER      CLOUDY    59  54  83 E7        29.58R
FREMONT        CLOUDY    56  54  91 NE7       29.63S
HOLLAND        LGT RAIN  58  53  84 E8        29.59F
GRAND RAPIDS   CLOUDY    59  54  83 E9        29.61R
IONIA          PTSUNNY   57  54  89 NE10      29.62R
KALAMAZOO      PTSUNNY   58  52  80 NE7       29.59S
LUDINGTON      CLOUDY    54  53  98 NE3       29.65F
MARSHALL       PTSUNNY   57  54  88 SE3       29.58S
MOUNT PLEASANT PTSUNNY   56  53  91 N12       29.64F
MUSKEGON       CLOUDY    59  55  87 NE9       29.62S
SOUTH HAVEN    MOSUNNY   60  56  85 E3        29.57S
$$
MIZ016>042-241400-
NORTHERN LOWER MICHIGAN

CITY           SKY/WX    TMP DP  RH WIND       PRES   REMARKS
ALPENA         CLOUDY    52  52 100 NE7       29.74S FOG
BEAVER ISLAND  CLOUDY    49  49  98 E10G16    29.74R
BELLAIRE       LGT RAIN  54  52  94 CALM      29.71S
CADILLAC       CLOUDY    54  53  96 NE5       29.68S
CHARLEVOIX     LGT RAIN  52  52 100 E5        29.74S
FRANKFORT      RAIN      54  51  89 CALM      29.68S
GAYLORD        CLOUDY    53  50  89 NE8       29.72S FOG
GRAYLING       CLOUDY    53  52  97 NE6       29.72S
HARBOR SPRINGS CLOUDY    51  50  97 E10       29.73R
HOUGHTON LAKE  CLOUDY    54  52  93 NE10      29.70S
MANISTEE       CLOUDY    54  53  97 E7        29.67F
OSCODA         CLOUDY    54  53  97 N8        29.70S FOG
PELLSTON       CLOUDY    51  47  86 E7        29.74S
ROGERS CITY    CLOUDY    48  47  94 CALM      29.76S
TRAVERSE CITY  LGT RAIN  51  50  96 CALM      29.69S VSB 1
$$
MIZ007>008-015-241400-
EASTERN UPPER MICHIGAN

CITY           SKY/WX    TMP DP  RH WIND       PRES   REMARKS
KINROSS        LGT RAIN  50  48  93 NE9       29.76S
MACKINAC ISLAN DRIZZLE   48  48 100 E9G16     29.75S
NEWBERRY       DRIZZLE   48  47  97 NE7       29.76S
S. S. MARIE    LGT RAIN  51  48  89 E6        29.77R
MUNISING         N/A     43  41  93 N6        29.77S
$$
MIZ004>006-011>014-085-241400-
CENTRAL UPPER MICHIGAN

CITY           SKY/WX    TMP DP  RH WIND       PRES   REMARKS
MANISTIQUE     LGT RAIN  49  46  89 NE5       29.75R
ESCANABA       LGT RAIN  46  45  96 VRB5      29.75S
SAWYER-GWINN   RAIN      41  41 100 NE12      29.77S
$$
MIZ001>003-009>011-084-241400-
WESTERN UPPER MICHIGAN

CITY           SKY/WX    TMP DP  RH WIND       PRES   REMARKS
IRON MOUNTAIN  LGT RAIN  47  43  86 N8        29.73F
HOUGHTON       PTSUNNY   51  42  71 E8        29.79F
COPPER HARBOR    N/A     45  39  79 VRB3      29.82S
IRONWOOD       CLOUDY    45  43  93 N5        29.81S
$$

ABBREVIATIONS USED IN REMARKS
   TC - TEMPERATURE IN CELSIUS
  WCI - WIND CHILL INDEX
   HX - HEAT INDEX
  VSB - VISIBILITY





USA.gov is the U.S. government's official web portal to all federal, state and local government web resources and services.